Weather observations for the past three days for
Mayport Naval Station - Adm David L. McDonald Field
Imperial (Metric)
Date Time (edt) Wind (mph) Vis. (mi.) Weather Sky Cond. Temperature (ºF) Relative Humidity Wind Chill (°F) Heat Index (°F) Pressure Precipitation (in)
Air Dwpt 6 hour altimeter (in) sea level (mb) 1 hr 3 hr 6 hr
Max. Min.
04 00:52 Vrbl 3 10.00 Mostly Cloudy SCT015 SCT150 BKN250 81 75.9 85% 87 29.99 1015.5
03 23:52 Vrbl 6 10.00 Mostly Cloudy FEW015 SCT150 BKN250 82 77 85% 90 29.99 1015.5
03 22:52 Vrbl 6 10.00 Mostly Cloudy FEW015 SCT150 BKN250 82 77 85% 90 29.99 1015.3
03 21:52 E 3 10.00 Mostly Cloudy FEW015 SCT150 BKN250 82 77 85% 90 29.98 1015.1
03 20:52 E 5 10.00 Mostly Cloudy FEW015 SCT150 BKN250 82 77 85% 90 29.97 1014.8
03 19:52 E 6 10.00 Mostly Cloudy FEW015 SCT150 BKN250 82 75 87.1 82 79% 89 29.97 1014.7
03 18:52 NE 8 10.00 Mostly Cloudy FEW015 SCT150 BKN250 82 75.9 82% 89 29.96 1014.3
03 17:52 NE 5 10.00 Mostly Cloudy FEW015 SCT120 BKN250 82.9 75 77% 90 29.94 1013.8
03 16:52 NE 5 10.00 Mostly Cloudy FEW015 SCT120 BKN250 84 75 74% 92 29.95 1014.0
03 15:52 SE 9 10.00 Mostly Cloudy SCT015 BKN060 BKN250 84 77 80% 94 29.98 1015.1
03 14:52 Vrbl 6 10.00 Mostly Cloudy SCT020 BKN060 BKN250 82 73 74% 87 29.98 1015.0
03 13:52 Vrbl 6 10.00 Mostly Cloudy SCT020 BKN060 BKN250 82 73 88 82 74% 87 30 1016.0
03 12:52 NE 8 10.00 Mostly Cloudy SCT020 BKN060 BKN250 82 77 85% 90 30.02 1016.5
03 11:58 Vrbl 6 10.00 Mostly Cloudy SCT020 SCT035 BKN250 88 80.1 77% 105 30.02 0.0
03 10:52 NE 8 10.00 Mostly Cloudy SCT015 SCT120 BKN250 88 80.1 77% 105 30.02 1016.3
03 09:52 NE 8 10.00 Mostly Cloudy FEW015 FEW120 BKN250 87.1 80.1 80% 103 30.01 1016.2
03 08:52 Vrbl 6 10.00 Partly Cloudy FEW015 FEW120 SCT250 82.9 78.1 85% 93 30.01 1016.1
03 07:52 Vrbl 6 10.00 Partly Cloudy FEW015 FEW120 SCT250 82.9 78.1 85% 93 30 1015.7
03 06:52 Vrbl 6 10.00 Partly Cloudy FEW015 SCT250 82 77 85% 90 29.98 1015.0
03 05:52 Vrbl 6 10.00 Partly Cloudy FEW020 SCT150 SCT250 81 75.9 85% 87 29.96 0.0
03 00:52 Vrbl 3 10.00 Mostly Cloudy FEW030 SCT150 BKN250 82 78.1 88% 91 30 1015.8
02 23:52 Vrbl 3 10.00 Mostly Cloudy FEW030 SCT150 BKN250 82 78.1 88% 91 30.01 1016.1
02 22:52 Vrbl 5 10.00 Mostly Cloudy FEW030 SCT150 BKN250 82.9 78.1 85% 93 30.01 1016.2
02 21:52 Vrbl 7 10.00 Mostly Cloudy FEW030 SCT150 BKN250 82.9 78.1 85% 93 30.01 1016.2
02 20:52 Vrbl 6 10.00 Mostly Cloudy FEW030 SCT150 BKN250 82.9 78.1 85% 93 30.01 1016.0
02 19:52 NE 8 10.00 Mostly Cloudy SCT030 BKN150 BKN250 82.9 78.1 87.1 82 85% 93 30 1015.7
02 18:52 E 7 10.00 Mostly Cloudy SCT030 BKN150 BKN250 82.9 75 77% 90 30.01 1016.0
02 17:52 E 7 10.00 Thunderstorm FEW015 SCT030CB BKN150 BKN250 82.9 77 82% 92 30.01 1016.0
02 16:52 E 7 10.00 Mostly Cloudy FEW015 SCT030 BKN150 BKN250 82.9 75.9 79% 91 30.01 1016.0
02 15:52 E 15 5.00 Light Rain SCT015 BKN030CB BKN250 82 73 74% 87 30.02 1016.4
02 14:52 NE 15 10.00 Mostly Cloudy SCT030 BKN250 87.1 79 77% 101 30.02 1016.5
02 13:52 NE 15 10.00 Mostly Cloudy SCT030 BKN250 87.1 79 87.1 82 77% 101 30.03 1016.8
02 12:52 NE 10 10.00 Partly Cloudy SCT030 SCT250 87.1 79 77% 101 30.04 1017.3
02 11:52 NE 10 10.00 Partly Cloudy SCT030 SCT250 87.1 79 77% 101 30.06 1017.9
02 10:52 NE 13 10.00 Partly Cloudy FEW030 SCT250 87.1 78.1 75% 100 30.06 1017.9
02 09:52 NE 10 10.00 A Few Clouds FEW025 FEW250 84.9 78.1 80% 97 30.05 1017.6
02 08:52 NE 9 10.00 A Few Clouds FEW025 FEW150 FEW250 82 73.9 77% 88 30.05 1017.3
02 07:52 NE 9 10.00 A Few Clouds FEW025 FEW150 FEW250 82 73.9 77% 88 30.04 1017.1
02 06:52 E 6 10.00 Partly Cloudy FEW150 SCT250 82 73 74% 87 30.03 1016.8
02 00:52 Vrbl 6 10.00 Mostly Cloudy SCT150 BKN250 82 78.1 88% 91 30.02 1016.4
01 23:52 Vrbl 3 10.00 Mostly Cloudy SCT150 BKN250 82.9 78.1 85% 93 30.03 1016.7
01 22:52 Vrbl 5 10.00 Mostly Cloudy FEW020 SCT150 BKN250 82.9 78.1 85% 93 30.04 1017.2
01 21:52 Vrbl 5 10.00 Mostly Cloudy FEW020 SCT150 BKN250 82.9 78.1 85% 93 30.04 1017.2
01 20:52 NE 8 10.00 Mostly Cloudy FEW020 SCT150 BKN250 82.9 78.1 85% 93 30.03 1016.7
01 19:52 NE 8 10.00 Mostly Cloudy FEW020 SCT150 BKN250 82.9 78.1 84.9 82.9 85% 93 30.02 1016.6
01 18:52 NE 9 10.00 Mostly Cloudy FEW020 SCT150 BKN250 84 77 80% 94 30.02 1016.5
01 17:52 NE 9 10.00 Mostly Cloudy FEW020 SCT150 BKN250 84 77 80% 94 30.02 1016.5
01 16:52 NE 9 10.00 Mostly Cloudy FEW020 SCT150 BKN250 84 73 70% 90 30.02 1016.5
01 15:52 E 7 10.00 Mostly Cloudy FEW020 FEW150 BKN250 84.9 75.9 75% 94 30.04 1017.1
01 14:52 NE 8 10.00 Mostly Cloudy FEW020 FEW150 BKN250 84 73.9 72% 91 30.04 1017.0
01 11:52 E 8 10.00 A Few Clouds FEW020 FEW250 84.9 73.9 70% 92 30.08 1018.6
01 10:52 NE 8 10.00 A Few Clouds FEW020 FEW250 84.9 75.9 75% 94 30.07 1018.3
01 09:52 NE 6 10.00 A Few Clouds FEW020 FEW250 84.9 78.1 80% 97 30.07 1018.1
01 08:52 NE 6 10.00 A Few Clouds FEW015 FEW250 82.9 77 82% 92 30.06 1017.9
01 07:52 NE 6 10.00 A Few Clouds FEW007 FEW250 81 73.9 79% 86 30.05 1017.4
01 06:52 NE 6 10.00 Partly Cloudy FEW020 SCT250 81 73.9 79% 86 30.03 1016.8
Date Time (edt) Wind (mph) Vis. (mi.) Weather Sky Cond. Air Dwpt Max. Min. Relative Humidity Wind Chill (°F) Heat Index (°F) altimeter (in) sea level (mb) 1 hr 3 hr 6 hr
6 hour
Temperature (ºF) Pressure Precipitation (in)